When you browse on this site, cookies collect data to enhance your experience and personalize the content and advertising you see.
Visit our Privacy Policy to learn more. By continuing to use the site, you agree to this use of cookies and data.
  • Em Portugal
  • Lista de países
  • Para 7 dias
  • Temperatura da água
  • Mapas de satélite
  • Mapa do tempo
  • Widgets de tempo
  • user-avatar
    Iniciar Sessão

    Previsão horária em Barbarka

    Hoje, 22 Abril, Segunda-feira

    Tempo Temperatura Precipitação Vento Pressão Humidade
    00:00 +7°C° 0 mm 3 m/s 756 mmHg 80%
    01:00 +5°C° 0 mm 3 m/s 756 mmHg 88%
    02:00 +4°C° 0 mm 3 m/s 756 mmHg 89%
    03:00 +4°C° 0 mm 3 m/s 756 mmHg 90%
    04:00 +3°C° 0 mm 3 m/s 756 mmHg 91%
    05:00 +4°C° 0 mm 4 m/s 756 mmHg 87%
    06:00 +5°C° 0 mm 4 m/s 756 mmHg 82%
    07:00 +6°C° 0 mm 5 m/s 756 mmHg 78%
    08:00 +7°C° 0 mm 6 m/s 756 mmHg 76%
    09:00 +9°C° 0 mm 6 m/s 756 mmHg 73%
    10:00 +10°C° 0 mm 6 m/s 756 mmHg 71%
    11:00 +10°C° 0 mm 7 m/s 756 mmHg 70%
    12:00 +11°C° 0 mm 7 m/s 756 mmHg 69%
    13:00 +12°C° 0 mm 7 m/s 756 mmHg 68%
    14:00 +14°C° 0 mm 7 m/s 755 mmHg 63%
    15:00 +15°C° 0 mm 7 m/s 755 mmHg 57%
    16:00 +17°C° 0 mm 7 m/s 755 mmHg 51%
    17:00 +16°C° 0 mm 7 m/s 755 mmHg 55%
    18:00 +14°C° 0 mm 7 m/s 755 mmHg 59%
    19:00 +13°C° 0 mm 6 m/s 755 mmHg 62%
    20:00 +11°C° 0 mm 6 m/s 755 mmHg 60%
    21:00 +11°C° 0 mm 6 m/s 755 mmHg 59%
    22:00 +10°C° 0 mm 7 m/s 756 mmHg 57%
    23:00 +10°C° 0 mm 7 m/s 756 mmHg 56%

    Amanhã, 23 Abril, Terça-feira

    Tempo Temperatura Precipitação Vento Pressão Humidade
    00:00 +9°C° 0 mm 7 m/s 756 mmHg 56%
    01:00 +8°C° 0 mm 7 m/s 755 mmHg 55%
    02:00 +7°C° 0 mm 8 m/s 755 mmHg 55%
    03:00 +7°C° 0 mm 8 m/s 755 mmHg 55%
    04:00 +7°C° 0 mm 8 m/s 755 mmHg 55%
    05:00 +7°C° 0 mm 9 m/s 754 mmHg 55%
    06:00 +8°C° 0 mm 9 m/s 754 mmHg 55%
    07:00 +8°C° 0 mm 10 m/s 754 mmHg 56%
    08:00 +11°C° 0 mm 10 m/s 754 mmHg 53%
    09:00 +12°C° 0 mm 10 m/s 754 mmHg 51%
    10:00 +14°C° 0 mm 11 m/s 754 mmHg 48%
    11:00 +14°C° 0 mm 11 m/s 753 mmHg 46%
    12:00 +16°C° 0 mm 11 m/s 753 mmHg 45%
    13:00 +17°C° 0 mm 11 m/s 753 mmHg 43%
    14:00 +17°C° 0 mm 10 m/s 752 mmHg 44%
    15:00 +17°C° 0 mm 10 m/s 752 mmHg 45%
    16:00 +17°C° 0 mm 10 m/s 752 mmHg 46%
    17:00 +16°C° 0 mm 9 m/s 752 mmHg 49%
    18:00 +15°C° 0 mm 8 m/s 751 mmHg 52%
    19:00 +13°C° 0 mm 8 m/s 751 mmHg 55%
    20:00 +13°C° 0 mm 8 m/s 752 mmHg 55%
    21:00 +12°C° 0 mm 8 m/s 752 mmHg 54%
    22:00 +12°C° 0 mm 8 m/s 752 mmHg 53%
    23:00 +12°C° 0.1 mm 8 m/s 752 mmHg 57%

    Depois de amanhã, 24 Abril, Quarta-feira

    Tempo Temperatura Precipitação Vento Pressão Humidade
    00:00 +11°C° 0.1 mm 8 m/s 751 mmHg 60%
    01:00 +11°C° 0.1 mm 8 m/s 751 mmHg 63%
    02:00 +10°C° 0.8 mm 7 m/s 751 mmHg 69%
    03:00 +10°C° 0.8 mm 7 m/s 751 mmHg 75%
    04:00 +9°C° 0.8 mm 7 m/s 751 mmHg 81%
    05:00 +9°C° 0.5 mm 7 m/s 751 mmHg 80%
    06:00 +9°C° 0.5 mm 7 m/s 751 mmHg 79%
    07:00 +10°C° 0.5 mm 6 m/s 751 mmHg 78%
    08:00 +11°C° 0.4 mm 7 m/s 751 mmHg 76%
    09:00 +12°C° 0.4 mm 7 m/s 751 mmHg 74%
    10:00 +12°C° 0.4 mm 7 m/s 751 mmHg 72%
    11:00 +15°C° 0 mm 6 m/s 751 mmHg 69%
    12:00 +16°C° 0 mm 6 m/s 751 mmHg 66%
    13:00 +19°C° 0 mm 5 m/s 751 mmHg 62%
    14:00 +19°C° 0 mm 5 m/s 751 mmHg 64%
    15:00 +19°C° 0 mm 4 m/s 751 mmHg 66%
    16:00 +19°C° 0 mm 4 m/s 751 mmHg 68%
    17:00 +18°C° 0 mm 4 m/s 751 mmHg 71%
    18:00 +17°C° 0 mm 3 m/s 751 mmHg 74%
    19:00 +16°C° 0 mm 3 m/s 751 mmHg 77%
    20:00 +15°C° 0 mm 4 m/s 751 mmHg 79%
    21:00 +14°C° 0 mm 4 m/s 751 mmHg 81%
    22:00 +13°C° 0 mm 4 m/s 752 mmHg 83%
    23:00 +13°C° 0 mm 4 m/s 752 mmHg 82%

    25 Abril, Quinta-feira

    Tempo Temperatura Precipitação Vento Pressão Humidade
    00:00 +13°C° 0 mm 4 m/s 752 mmHg 82%
    01:00 +13°C° 0 mm 4 m/s 752 mmHg 81%
    02:00 +12°C° 0 mm 4 m/s 752 mmHg 81%
    03:00 +12°C° 0 mm 4 m/s 752 mmHg 82%
    04:00 +12°C° 0 mm 4 m/s 752 mmHg 82%
    05:00 +13°C° 0 mm 5 m/s 752 mmHg 80%
    06:00 +14°C° 0 mm 5 m/s 752 mmHg 78%
    07:00 +15°C° 0 mm 5 m/s 752 mmHg 77%
    08:00 +16°C° 0 mm 5 m/s 752 mmHg 72%
    09:00 +19°C° 0 mm 5 m/s 752 mmHg 67%
    10:00 +21°C° 0 mm 5 m/s 752 mmHg 62%
    11:00 +22°C° 0 mm 5 m/s 752 mmHg 60%
    12:00 +22°C° 0 mm 5 m/s 752 mmHg 58%
    13:00 +23°C° 0 mm 5 m/s 752 mmHg 57%
    14:00 +23°C° 0 mm 4 m/s 752 mmHg 56%
    15:00 +24°C° 0 mm 3 m/s 751 mmHg 56%
    16:00 +24°C° 0 mm 2 m/s 751 mmHg 55%
    17:00 +23°C° 0 mm 2 m/s 751 mmHg 61%
    18:00 +21°C° 0 mm 2 m/s 751 mmHg 66%
    19:00 +19°C° 0 mm 2 m/s 752 mmHg 72%
    20:00 +18°C° 0 mm 2 m/s 752 mmHg 75%
    21:00 +18°C° 0 mm 2 m/s 752 mmHg 78%
    22:00 +17°C° 0 mm 2 m/s 752 mmHg 82%
    23:00 +16°C° 0 mm 2 m/s 751 mmHg 83%

    26 Abril, Sexta-feira

    Tempo Temperatura Precipitação Vento Pressão Humidade
    00:00 +16°C° 0 mm 2 m/s 751 mmHg 85%
    01:00 +15°C° 0 mm 2 m/s 751 mmHg 86%
    02:00 +14°C° 0.1 mm 3 m/s 751 mmHg 87%
    03:00 +14°C° 0.1 mm 3 m/s 750 mmHg 88%
    04:00 +13°C° 0.1 mm 3 m/s 750 mmHg 88%
    05:00 +14°C° 0 mm 3 m/s 750 mmHg 84%
    06:00 +17°C° 0 mm 4 m/s 749 mmHg 80%
    07:00 +18°C° 0 mm 4 m/s 749 mmHg 75%
    08:00 +19°C° 0 mm 4 m/s 749 mmHg 70%
    09:00 +21°C° 0 mm 4 m/s 748 mmHg 65%
    10:00 +22°C° 0 mm 5 m/s 748 mmHg 60%
    11:00 +23°C° 0 mm 4 m/s 748 mmHg 57%
    12:00 +25°C° 0 mm 4 m/s 747 mmHg 54%
    13:00 +26°C° 0 mm 4 m/s 747 mmHg 51%
    14:00 +26°C° 0 mm 4 m/s 747 mmHg 51%
    15:00 +27°C° 0 mm 4 m/s 746 mmHg 51%
    16:00 +27°C° 0 mm 4 m/s 746 mmHg 51%
    17:00 +25°C° 0.9 mm 4 m/s 746 mmHg 59%
    18:00 +22°C° 0.9 mm 4 m/s 746 mmHg 66%
    19:00 +20°C° 0.9 mm 4 m/s 747 mmHg 74%
    20:00 +19°C° 0.5 mm 5 m/s 747 mmHg 80%
    21:00 +16°C° 0.5 mm 6 m/s 748 mmHg 86%
    22:00 +15°C° 0.5 mm 7 m/s 748 mmHg 91%
    23:00 +14°C° 0.3 mm 7 m/s 749 mmHg 91%

    27 Abril, Sábado

    Tempo Temperatura Precipitação Vento Pressão Humidade
    00:00 +12°C° 0.3 mm 7 m/s 749 mmHg 90%
    01:00 +11°C° 0.3 mm 7 m/s 750 mmHg 90%
    02:00 +11°C° 0 mm 7 m/s 751 mmHg 89%
    03:00 +10°C° 0 mm 7 m/s 751 mmHg 89%
    04:00 +10°C° 0 mm 7 m/s 752 mmHg 89%
    05:00 +10°C° 0 mm 7 m/s 752 mmHg 88%
    06:00 +10°C° 0 mm 6 m/s 753 mmHg 88%
    07:00 +10°C° 0 mm 6 m/s 753 mmHg 87%
    08:00 +10°C° 0.1 mm 6 m/s 754 mmHg 85%
    09:00 +10°C° 0.1 mm 6 m/s 754 mmHg 84%
    10:00 +10°C° 0.1 mm 6 m/s 754 mmHg 83%
    11:00 +11°C° 0 mm 6 m/s 755 mmHg 80%
    12:00 +12°C° 0 mm 5 m/s 755 mmHg 77%
    13:00 +13°C° 0 mm 4 m/s 755 mmHg 75%
    14:00 +14°C° 0 mm 4 m/s 755 mmHg 71%
    15:00 +15°C° 0 mm 4 m/s 755 mmHg 66%
    16:00 +17°C° 0 mm 3 m/s 755 mmHg 62%
    17:00 +16°C° 0 mm 3 m/s 755 mmHg 65%
    18:00 +14°C° 0 mm 3 m/s 755 mmHg 68%
    19:00 +14°C° 0 mm 2 m/s 755 mmHg 71%
    20:00 +13°C° 0 mm 2 m/s 755 mmHg 73%
    21:00 +11°C° 0 mm 3 m/s 756 mmHg 75%
    22:00 +10°C° 0 mm 3 m/s 756 mmHg 77%
    23:00 +10°C° 0 mm 3 m/s 756 mmHg 80%
    Mostrar mais